Location: Unspecified
(0.0000°N, 0.0000°E)
Time: 05:31:59
(UTC+00:00)

Tiangong 2 - Pass Details

Date: 21 April 2017
Orbit: 380 x 389 km, 42.8° (Epoch: 22 April)

Event Time Altitude Azimuth Distance (km) Brightness Sun altitude
Rises 19:40:25 0° 324° (NW) 2,251 5.7 -24.8°
Reaches altitude 10° 19:42:31 10° 330° (NNW) 1,398 4.4 -25.4°
Enters shadow 19:43:14 15° 334° (NNW) 1,124 3.8 -25.5°
